Location: Unspecified
(48.5910°N, 12.0210°E)
Time: 07:53:36
(UTC+00:00)

Daily predictions for brighter satellites

Satellite Brightness Start Highest point End
(mag) Time Altitude Azimuth Time Altitude Azimuth Time Altitude Azimuth
Cosmos 1934 Rocket 4.1 17:46:38 10° N 17:52:56 89° E 17:59:05 10° S
Cosmos 2219 3.6 17:49:26 10° NNW 17:55:03 71° WSW 18:00:37 10° SSE
Cosmos 2263 Rocket 4.1 17:53:21 10° N 17:56:16 14° NNE 17:59:09 10° ENE
Cosmos 1727 Rocket 4.4 17:52:10 10° SSE 17:57:57 41° E 18:03:48 10° NNE
USA 186 3.1 17:55:55 10° SE 17:58:44 24° ENE 18:01:30 10° NNE
COSMO-SKYMED 1 3.8 17:57:08 10° N 18:01:20 48° WNW 18:05:30 10° SW
Cosmos 1707 3.1 18:04:43 10° N 18:08:29 43° ENE 18:12:12 10° SSE
Cosmos 1656 4.0 18:04:35 10° S 18:09:47 41° ESE 18:14:56 10° NE
HJ-1C 3.3 18:06:33 10° SSE 18:09:56 72° ENE 18:13:20 10° N
SPOT 3 Rocket 3.6 18:05:18 10° SSE 18:10:26 61° ENE 18:15:36 10° N
Cosmos 1346 Rocket 3.4 18:06:43 10° SSE 18:10:28 35° E 18:14:14 10° NNE
Aureole 2 Rocket 3.1 18:10:51 10° S 18:13:59 31° ESE 18:16:59 10° NE
CZ-4C R/B 3.5 18:10:22 10° NW 18:16:40 39° NNE 18:23:08 13° E
FREGAT/IRIS 2.4 18:16:17 10° SSE 18:19:09 89° W 18:22:02 10° NNW
Envisat 4.2 18:14:40 10° S 18:19:31 46° W 18:24:26 10° NNW
Cosmos 1607 4.2 18:13:46 10° SW 18:20:07 75° NW 18:26:25 10° NE
SL-4 R/B 2.5 18:16:56 10° SW 18:21:15 47° SSE 18:24:51 13° ENE
DEBRIS 1.8 18:19:03 10° W 18:21:15 75° SSW 18:23:19 16° ESE
Cosmos 921 Rocket 3.3 18:19:01 10° NNW 18:23:25 73° WSW 18:27:51 10° SSE
Cosmos 1455 Rocket 3.3 18:19:31 10° SSE 18:23:45 46° E 18:27:59 10° NNE
H-2A R/B 3.1 18:19:50 11° ESE 18:24:02 28° ENE 18:28:32 10° N
Cosmos 332 Rocket 3.8 18:19:58 10° NNW 18:24:50 88° ENE 18:29:41 10° SSE
Cosmos 2251 Rocket 3.5 18:21:11 10° SSW 18:26:29 87° ESE 18:31:51 10° NNE
Cosmos 1992 Rocket 4.0 18:21:36 10° NNW 18:26:53 83° ENE 18:32:06 10° SSE
Cosmos 1980 Rocket 3.3 18:23:42 10° SSE 18:27:50 21° E 18:31:59 10° NE
CZ-2D R/B 4.1 18:27:24 10° S 18:31:10 53° W 18:34:59 10° NNW
Cosmos 1340 3.0 18:29:54 10° SSE 18:33:27 40° E 18:37:01 10° NNE
USA 234 3.9 18:31:29 12° E 18:37:16 46° N 18:43:26 10° WNW
Cosmos 1892 Rocket 3.8 18:33:30 10° NNW 18:37:51 73° W 18:42:09 10° S
Cosmos 2061 Rocket 4.3 18:36:59 10° N 18:43:03 47° ENE 18:48:53 11° SSE
Cosmos 2100 Rocket 4.0 18:38:19 10° N 18:44:32 65° ENE 18:50:46 10° SSE
Cosmos 1939 Rocket 3.6 18:40:55 10° S 18:44:49 55° W 18:48:50 10° NNW
Cosmos 2016 Rocket 4.3 18:39:02 10° N 18:45:06 45° ENE 18:50:09 14° SE
CZ-2C R/B 4.4 18:43:20 10° N 18:47:56 59° WNW 18:52:34 10° SSW
Cosmos 1766 4.2 18:48:22 26° E 18:48:29 26° E 18:51:44 10° NNE
Resurs 1-3 3.8 18:45:21 17° SE 18:48:32 50° ENE 18:52:47 10° N
Cosmos 2227 Rocket 3.1 18:45:30 10° NW 18:50:58 50° WSW 18:56:23 10° S
Cosmos 1626 Rocket 3.6 18:47:51 10° N 18:52:14 58° ENE 18:55:36 17° SSE
ARGOS 3.4 18:49:09 18° SE 18:52:57 48° ENE 18:58:07 10° N
COBE Rocket 4.1 18:52:22 10° NNE 18:57:12 47° E 19:01:53 10° S
Cosmos 2173 Rocket 3.9 18:51:16 10° N 18:57:24 74° E 19:03:33 10° SSE
Cosmos 1802 Rocket 3.9 18:51:52 10° N 18:58:01 63° ENE 19:03:47 12° SSE
NOSS 2-1 (C) 4.5 18:52:53 10° NW 18:58:21 88° NE 19:03:49 19° SE
Intercosmos 25 Rocket 4.5 18:55:13 10° SSW 18:58:41 51° WNW 19:03:48 10° N
NOSS 2-1 (D) 4.5 18:55:13 10° NW 19:00:42 90° SW 19:06:08 20° SE
SL-08 RB Rocket 4.2 18:59:25 29° ESE 19:00:53 38° ENE 19:05:03 10° N
Cosmos 405 4.5 19:01:53 10° NNE 19:04:02 22° NE 19:04:02 22° NE
MetOp-A 4.4 19:05:51 28° SE 19:08:25 49° ENE 19:13:34 10° N
KORONAS-FOTON 4.4 19:07:07 10° N 19:10:33 36° ENE 19:10:33 36° ENE
Cosmos 1000 Rocket 4.4 19:04:40 10° S 19:10:57 73° E 19:17:15 10° NNE
Cosmos 1725 Rocket 4.1 19:06:35 10° N 19:12:46 54° ENE 19:16:10 26° SE
Cosmos 2360 4.3 19:07:28 10° S 19:12:55 49° ESE 19:18:25 10° NE
Iridium 4 Rocket 3.2 19:09:29 15° S 19:13:13 67° E 19:18:10 10° N
Cosmos 1461 3.8 19:09:17 10° S 19:12:20 32° SSE 19:12:20 32° SSE
Cosmos 2369 3.7 19:08:25 10° SSW 19:14:06 86° WNW 19:19:50 10° NNE
Cosmos 1674 2.9 19:11:25 10° N 19:15:05 47° ENE 19:15:09 47° E
Resurs 01 Rocket 1.5 19:15:56 29° SSE 19:18:12 82° ENE 19:22:40 10° NNW
Cosmos 1697 Rocket 2.6 19:12:32 10° SSW 19:18:12 83° ESE 19:23:53 10° NNE
SJ-6B 4.3 19:16:16 10° SSW 19:19:48 35° W 19:23:19 10° NNW
Cosmos 1190 Rocket 4.1 19:16:10 10° S 19:21:17 52° ESE 19:26:27 10° NNE
Cosmos 304 Rocket 4.3 19:22:24 10° NNW 19:27:08 56° WSW 19:30:12 21° S
USA 186 4.2 19:26:46 10° SSW 19:29:34 24° W 19:32:22 10° NW
Cosmos 1602 Rocket 3.7 19:25:29 10° NNW 19:29:51 71° W 19:32:10 27° S
Cosmos 1459 Rocket 4.3 19:23:46 10° NNW 19:30:05 67° W 19:36:18 10° S
Cosmos 2278 3.8 19:25:34 10° SSW 19:31:15 80° WNW 19:37:00 10° NNE
Meteor 2-5 Rocket 4.0 19:26:04 10° NNW 19:31:37 65° W 19:36:25 14° S
Cosmos 2227 4.2 19:25:53 10° NNW 19:31:40 69° ENE 19:33:30 44° SE
Cosmos 1953 Rocket 4.5 19:31:17 10° N 19:34:28 33° NE 19:34:28 33° NE
Cosmos 2297 Rocket 4.3 19:31:01 10° NW 19:35:22 23° WSW 19:39:44 10° SSW
Cosmos 407 Rocket 3.4 19:31:05 10° SSW 19:36:21 73° ESE 19:41:36 10° NNE
Cosmos 1805 3.3 19:37:42 64° NE 19:37:42 64° NE 19:41:06 10° NNE
SPOT 5 4.2 19:38:16 26° NE 19:38:16 26° NE 19:41:45 10° N
Meteor 1-24 Rocket 3.6 19:32:54 10° NNW 19:38:23 81° W 19:41:01 31° S
Cosmos 2263 Rocket 2.3 19:36:07 10° NNW 19:41:35 52° NE 19:42:23 48° E
Cosmos 1818 3.4 19:36:56 10° SSW 19:42:23 78° SE 19:47:53 10° NE
USA 267 3.4 19:42:38 42° ESE 19:43:50 46° SE 19:50:04 10° SSW
Cosmos 1626 4.4 19:49:48 10° N 19:50:54 17° NNE 19:50:54 17° NNE
Cosmos 614 Rocket 3.8 19:51:53 30° SSW 19:54:28 80° ESE 19:59:43 10° NNE
Cosmos 2285 Rocket 4.1 19:54:53 52° E 19:54:53 52° E 20:00:51 10° NNE
Genesis I 4.1 19:53:13 10° NNW 19:56:25 45° N 19:56:25 45° N
Spot 2 Rocket 3.8 19:59:01 45° SSW 20:00:28 66° WSW 20:05:35 10° NNW
SL-4 R/B 2.4 19:56:36 10° W 20:00:29 61° NW 20:00:29 61° NW
H-2A R/B 2.8 20:00:27 27° SSW 20:03:12 51° W 20:08:27 10° NNW
Cosmos 676 Rocket 4.3 20:05:41 54° NE 20:05:41 54° NE 20:09:53 10° NNE
CZ-4C R/B 2.9 19:58:47 10° NW 20:05:54 79° SW 20:08:20 49° SSE
ERS-1 Rocket 3.3 20:07:47 54° NE 20:07:47 54° NE 20:12:05 10° N
Cosmos 2278 Rocket 4.5 20:05:23 10° N 20:07:29 12° NNE 20:08:56 11° NE
Cosmos 1140 Rocket 3.5 20:08:47 67° NE 20:08:47 67° NE 20:13:21 10° NNE
Cosmos 1980 Rocket 2.4 20:05:36 10° SW 20:11:15 70° WNW 20:16:58 10° NNE
Cosmos 1825 Rocket 4.2 20:13:33 10° NNW 20:17:23 55° WNW 20:17:23 55° WNW
MetOp-B 4.3 20:18:48 61° SW 20:19:24 66° WSW 20:24:45 10° NNW
USA 234 3.1 20:18:49 64° E 20:19:54 80° NNE 20:26:28 10° NW
Cosmos 2123 Rocket 4.4 20:16:38 13° SSW 20:22:04 59° WNW 20:28:13 10° N
Cosmos 2233 Rocket 4.0 20:15:51 10° NNW 20:22:08 77° W 20:23:14 61° SSW
IRAS Rocket 4.2 20:22:43 82° NE 20:22:43 82° NE 20:28:14 10° NNW
CZ-2C R/B 3.2 20:26:44 72° WNW 20:26:44 72° WNW 20:31:30 10° NNW
GEOS 3 Rocket 3.7 20:29:32 73° WNW 20:29:32 73° WNW 20:34:14 10° NW
Cosmos 1844 Rocket 3.8 20:27:07 10° NNW 20:31:18 32° NNE 20:31:18 32° NNE
SPOT 1/Viking Rocket 4.0 20:38:25 56° NNW 20:38:25 56° NNW 20:42:32 10° NNW
Terra 3.3 20:44:19 30° N 20:44:19 30° N 20:46:50 10° N
NOSS 3-3 (A) 4.4 20:42:09 10° NW 20:49:34 76° SW 20:50:09 72° SSW
NOSS 3-3 (C) 4.4 20:42:14 10° NW 20:49:41 76° SW 20:50:14 73° SSW
Resurs 01 Rocket 4.4 20:53:29 10° WSW 20:55:16 12° W 20:57:08 10° WNW
Cosmos 2322 Rocket 4.1 21:03:07 19° NNE 21:03:07 19° NNE 21:04:40 10° NNE
ADEOS Rocket 3.7 21:09:20 10° N 21:12:58 42° N 21:12:58 42° N
SL-16 R/B 3.9 21:23:54 26° NNE 21:23:54 26° NNE 21:26:22 10° NNE
Cosmos 2263 Rocket 3.8 21:20:31 10° NW 21:24:06 27° W 21:24:06 27° W
USA 267 4.3 21:30:03 35° WSW 21:30:03 35° WSW 21:33:36 10° WSW
ATLAS 3B R/B 4.4 21:38:59 21° NE 21:38:59 21° NE 21:40:55 10° NE
CZ-2C R/B 4.4 21:37:40 10° N 21:40:18 28° NNW 21:40:18 28° NNW
Cosmos 2360 Rocket 4.5 21:55:27 17° NNE 21:55:27 17° NNE 21:56:40 10° NNE
Cosmos 2278 Rocket 4.0 21:47:57 10° NNW 21:50:47 26° N 21:50:47 26° N
Cosmos 2322 Rocket 4.4 22:44:52 21° NNW 22:44:52 21° NNW 22:48:08 10° N
ATLAS 3B R/B 4.1 23:26:09 31° NNW 23:26:09 31° NNW 23:31:34 10° NE
CENTAUR R/B 3.9 23:35:50 36° N 23:35:50 36° N 23:41:28 10° NE
Cosmos 2237 Rocket 4.4 23:41:30 21° NNE 23:41:30 21° NNE 23:43:15 10° NNE
Cosmos 2219 Rocket 4.4 23:46:27 21° N 23:46:27 21° N 23:48:30 10° NNE
ATLAS CENTAUR R/B 4.2 23:38:18 10° WNW 23:50:10 49° NNW 23:50:10 49° NNW
